Location: Kerb�bon
(47.7970°N, 3.3487°W)
Time: 12:18:37
(UTC+00:00)

Cosmos 2074 Rocket - Pass Details

Date: 12 May 2021
Orbit: 967 x 986 km, 82.9° (Epoch: 18 June)

Event Time Altitude Azimuth Distance (km) Brightness Sun altitude
Rises 21:34:51 0° 350° (N) 3,706 8.2 -15.3°
Reaches altitude 10° 21:37:22 10° 351° (N) 2,754 7.3 -15.6°
Maximum altitude 21:43:43 89° 81° (E) 993 4.0 -16.2°
Enters shadow 21:48:08 21° 172° (S) 2,049 5.2 -16.6°
